Location: Diguira
(13.1838°N, 4.9109°W)
Time: 17:29:29
(UTC+00:00)

Cosmos 1842 - Pass Details

Date: 18 September 2020
Orbit: 521 x 536 km, 82.5° (Epoch: 24 October)

Event Time Altitude Azimuth Distance (km) Brightness Sun altitude
Rises 19:10:23 0° 6° (N) 2,640 6.8 -13.5°
Reaches altitude 10° 19:12:37 10° 14° (NNE) 1,754 5.8 -14.0°
Maximum altitude 19:16:14 40° 85° (E) 781 3.6 -14.9°
Enters shadow 19:19:50 10° 155° (SSE) 1,744 5.6 -15.8°
